This is the latest recevied weather packets stored in our database for station/object WB4YDL. If no packets are shown the sender has not sent any weather packets the latest 10 day(s).
| Time | Temp. | Humidity | Pressure | Rain* | Wind** | Luminosity | Snow |
|---|---|---|---|---|---|---|---|
| 1777770408 | 12.78° C | 60% | 1014.1 hPa | 0 mm | - | 0 W/m² | - |
| 1777770106 | 12.78° C | 61% | 1013.9 hPa | 0 mm | - | 0 W/m² | - |
| 1777769803 | 12.78° C | 60% | 1013.9 hPa | 0 mm | - | 1 W/m² | - |
| 1777769500 | 12.78° C | 60% | 1013.8 hPa | 0 mm | - | 2 W/m² | - |
| 1777769196 | 12.78° C | 59% | 1013.8 hPa | 0 mm | - | 3 W/m² | - |
| 1777768895 | 13.33° C | 61% | 1013.9 hPa | 0 mm | - | 5 W/m² | - |
| 1777768591 | 13.33° C | 59% | 1013.9 hPa | 0 mm | - | 9 W/m² | - |
| 1777768288 | 13.89° C | 59% | 1013.5 hPa | 0 mm | - | 12 W/m² | - |
| 1777767985 | 13.89° C | 57% | 1013.5 hPa | 0 mm | - | 16 W/m² | - |
| 1777767682 | 13.89° C | 60% | 1013.4 hPa | 0 mm | - | 20 W/m² | - |
| 1777767378 | 14.44° C | 60% | 1013.5 hPa | 0 mm | - | 24 W/m² | - |
| 1777767075 | 14.44° C | 59% | 1013.3 hPa | 0 mm | - | 29 W/m² | - |
| 1777766773 | 14.44° C | 60% | 1013.3 hPa | 0 mm | - | 34 W/m² | - |
| 1777766470 | 15° C | 59% | 1013.2 hPa | 0 mm | - | 40 W/m² | - |
| 1777766166 | 15° C | 59% | 1013 hPa | 0 mm | - | 47 W/m² | - |
| 1777765864 | 15° C | 58% | 1013.1 hPa | 0 mm | - | 54 W/m² | - |
| 1777765560 | 15.56° C | 57% | 1013 hPa | 0 mm | - | 61 W/m² | - |
| 1777765258 | 15.56° C | 57% | 1013.1 hPa | 0 mm | - | 68 W/m² | - |
| 1777764958 | 15.56° C | 55% | 1013.1 hPa | 0 mm | - | 76 W/m² | - |
| 1777764655 | 15.56° C | 56% | 1013.1 hPa | 0 mm | - | 86 W/m² | - |
| 1777764351 | 15.56° C | 57% | 1013 hPa | 0 mm | - | 93 W/m² | - |
| 1777764049 | 15.56° C | 56% | 1013.3 hPa | 0 mm | - | 102 W/m² | - |
| 1777763745 | 15.56° C | 57% | 1012.9 hPa | 0 mm | - | 110 W/m² | - |
| 1777763444 | 15.56° C | 59% | 1013 hPa | 0 mm | - | 124 W/m² | - |
| 1777763141 | 15.56° C | 58% | 1013 hPa | 0 mm | - | 133 W/m² | - |
* Rain latest hour (hover to see other rain measurements)
** Current wind speed in m/s (hover to see current wind gust speed)